Time,TemperatureF,DewpointF,PressureIn,WindDirection,WindDirectionDegrees,WindSpeedMPH,WindSpeedGustMPH,Humidity,HourlyPrecipIn,Conditions,Clouds,dailyrainin,SolarRadiationWatts/m^2,SoftwareType,DateUTC
2013-01-18 00:04:00,33.0,21.0,-100.00,North,358,6.0,18.0,61,0.00,,,0.00,0.000000,,2013-01-18 05:04:00,
2013-01-18 00:12:00,33.0,21.0,-100.00,North,358,6.0,18.0,61,0.00,,,0.00,0.000000,,2013-01-18 05:12:00,
2013-01-18 00:22:00,33.0,21.0,-100.00,North,358,6.0,18.0,61,0.00,,,0.00,0.000000,,2013-01-18 05:22:00,
2013-01-18 00:53:00,33.0,19.0,-100.00,NNE,20,7.0,12.0,57,0.00,,,0.00,0.000000,,2013-01-18 05:53:00,
2013-01-18 01:02:00,33.0,19.0,-100.00,NNE,20,7.0,12.0,57,0.00,,,0.00,0.000000,,2013-01-18 06:02:00,
2013-01-18 01:12:00,33.0,19.0,-100.00,NNE,20,7.0,12.0,57,0.00,,,0.00,0.000000,,2013-01-18 06:12:00,
2013-01-18 01:22:00,33.0,19.0,-100.00,NNE,20,7.0,12.0,57,0.00,,,0.00,0.000000,,2013-01-18 06:22:00,
2013-01-18 01:53:00,33.0,17.0,-100.00,NNE,22,7.0,11.0,52,0.00,,,0.00,1.000000,,2013-01-18 06:53:00,
2013-01-18 02:02:00,33.0,17.0,-100.00,NNE,22,7.0,11.0,52,0.00,,,0.00,1.000000,,2013-01-18 07:02:00,
2013-01-18 02:12:00,33.0,17.0,-100.00,NNE,22,7.0,11.0,52,0.00,,,0.00,1.000000,,2013-01-18 07:12:00,
2013-01-18 02:22:00,33.0,17.0,-100.00,NNE,22,7.0,11.0,52,0.00,,,0.00,1.000000,,2013-01-18 07:22:00,
2013-01-18 02:52:00,28.0,21.0,-100.00,North,10,11.0,21.0,76,0.00,,,0.00,1.000000,,2013-01-18 07:52:00,
2013-01-18 03:02:00,28.0,21.0,-100.00,North,10,11.0,21.0,76,0.00,,,0.00,1.000000,,2013-01-18 08:02:00,
2013-01-18 03:12:00,28.0,21.0,-100.00,North,10,11.0,21.0,76,0.00,,,0.00,1.000000,,2013-01-18 08:12:00,
2013-01-18 03:22:00,28.0,21.0,-100.00,North,10,11.0,21.0,76,0.00,,,0.00,1.000000,,2013-01-18 08:22:00,
2013-01-18 03:53:00,27.0,24.0,-100.00,NNE,19,4.0,16.0,90,0.00,,,0.00,1.000000,,2013-01-18 08:53:00,
2013-01-18 04:03:00,27.0,24.0,-100.00,NNE,19,4.0,16.0,90,0.00,,,0.00,1.000000,,2013-01-18 09:03:00,
2013-01-18 04:12:00,27.0,24.0,-100.00,NNE,19,4.0,16.0,90,0.00,,,0.00,1.000000,,2013-01-18 09:12:00,
2013-01-18 04:22:00,27.0,24.0,-100.00,NNE,19,4.0,16.0,90,0.00,,,0.00,1.000000,,2013-01-18 09:22:00,
2013-01-18 04:53:00,28.0,20.0,-100.00,NNE,16,4.0,8.0,73,0.00,,,0.00,1.000000,,2013-01-18 09:53:00,
2013-01-18 05:03:00,28.0,20.0,-100.00,NNE,16,4.0,8.0,73,0.00,,,0.00,1.000000,,2013-01-18 10:03:00,
2013-01-18 05:12:00,28.0,20.0,-100.00,NNE,16,4.0,8.0,73,0.00,,,0.00,1.000000,,2013-01-18 10:12:00,
2013-01-18 05:22:00,28.0,20.0,-100.00,NNE,16,4.0,8.0,73,0.00,,,0.00,1.000000,,2013-01-18 10:22:00,
2013-01-18 05:53:00,28.0,12.0,-100.00,North,356,6.0,12.0,51,0.00,,,0.00,0.000000,,2013-01-18 10:53:00,
2013-01-18 06:03:00,28.0,12.0,-100.00,North,356,6.0,12.0,51,0.00,,,0.00,0.000000,,2013-01-18 11:03:00,
2013-01-18 06:12:00,28.0,12.0,-100.00,North,356,6.0,12.0,51,0.00,,,0.00,0.000000,,2013-01-18 11:12:00,
2013-01-18 06:23:00,28.0,12.0,-100.00,North,356,6.0,12.0,51,0.00,,,0.00,0.000000,,2013-01-18 11:23:00,
2013-01-18 06:53:00,28.0,8.0,-100.00,North,360,7.0,15.0,43,0.00,,,0.00,1.000000,,2013-01-18 11:53:00,
2013-01-18 07:03:00,28.0,8.0,-100.00,North,360,7.0,15.0,43,0.00,,,0.00,1.000000,,2013-01-18 12:03:00,
2013-01-18 07:12:00,28.0,8.0,-100.00,North,360,7.0,15.0,43,0.00,,,0.00,1.000000,,2013-01-18 12:12:00,
2013-01-18 07:23:00,28.0,8.0,-100.00,North,360,7.0,15.0,43,0.00,,,0.00,1.000000,,2013-01-18 12:23:00,
2013-01-18 07:53:00,25.0,2.0,-100.00,North,350,10.0,17.0,37,0.00,,,0.00,3.000000,,2013-01-18 12:53:00,
2013-01-18 08:03:00,25.0,2.0,-100.00,North,350,10.0,17.0,37,0.00,,,0.00,3.000000,,2013-01-18 13:03:00,
2013-01-18 08:12:00,25.0,2.0,-100.00,North,350,10.0,17.0,37,0.00,,,0.00,3.000000,,2013-01-18 13:12:00,
2013-01-18 08:23:00,25.0,2.0,-100.00,North,350,10.0,17.0,37,0.00,,,0.00,3.000000,,2013-01-18 13:23:00,
2013-01-18 08:53:00,26.0,-1.0,-100.00,North,351,13.0,21.0,30,0.00,,,0.00,82.000000,,2013-01-18 13:53:00,
2013-01-18 09:03:00,26.0,-1.0,-100.00,North,351,13.0,21.0,30,0.00,,,0.00,82.000000,,2013-01-18 14:03:00,
2013-01-18 09:13:00,26.0,-1.0,-100.00,North,351,13.0,21.0,30,0.00,,,0.00,82.000000,,2013-01-18 14:13:00,
2013-01-18 09:23:00,26.0,-1.0,-100.00,North,351,13.0,21.0,30,0.00,,,0.00,82.000000,,2013-01-18 14:23:00,
2013-01-18 09:53:00,26.0,-3.0,-100.00,NNW,340,9.0,23.0,28,0.00,,,0.00,234.000000,,2013-01-18 14:53:00,
2013-01-18 10:03:00,26.0,-3.0,-100.00,NNW,340,9.0,23.0,28,0.00,,,0.00,234.000000,,2013-01-18 15:03:00,
2013-01-18 10:13:00,26.0,-3.0,-100.00,NNW,340,9.0,23.0,28,0.00,,,0.00,234.000000,,2013-01-18 15:13:00,
2013-01-18 10:23:00,26.0,-3.0,-100.00,NNW,340,9.0,23.0,28,0.00,,,0.00,234.000000,,2013-01-18 15:23:00,
2013-01-18 10:54:00,26.0,-4.0,-100.00,NNW,346,13.0,27.0,26,0.00,,,0.00,358.000000,,2013-01-18 15:54:00,
2013-01-18 11:03:00,26.0,-4.0,-100.00,NNW,346,13.0,27.0,26,0.00,,,0.00,358.000000,,2013-01-18 16:03:00,
2013-01-18 11:13:00,26.0,-4.0,-100.00,NNW,346,13.0,27.0,26,0.00,,,0.00,358.000000,,2013-01-18 16:13:00,
2013-01-18 11:23:00,26.0,-4.0,-100.00,NNW,346,13.0,27.0,26,0.00,,,0.00,358.000000,,2013-01-18 16:23:00,
2013-01-18 11:53:00,27.0,-4.0,-100.00,NNW,327,12.0,23.0,25,0.00,,,0.00,453.000000,,2013-01-18 16:53:00,
2013-01-18 12:03:00,27.0,-4.0,-100.00,NNW,327,12.0,23.0,25,0.00,,,0.00,453.000000,,2013-01-18 17:03:00,
2013-01-18 12:13:00,27.0,-4.0,-100.00,NNW,327,12.0,23.0,25,0.00,,,0.00,453.000000,,2013-01-18 17:13:00,
2013-01-18 12:23:00,27.0,-4.0,-100.00,NNW,327,12.0,23.0,25,0.00,,,0.00,453.000000,,2013-01-18 17:23:00,
2013-01-18 12:53:00,27.0,-5.0,-100.00,NNW,338,12.0,22.0,24,0.00,,,0.00,491.000000,,2013-01-18 17:53:00,
2013-01-18 13:03:00,27.0,-5.0,-100.00,NNW,338,12.0,22.0,24,0.00,,,0.00,491.000000,,2013-01-18 18:03:00,
2013-01-18 13:13:00,27.0,-5.0,-100.00,NNW,338,12.0,22.0,24,0.00,,,0.00,491.000000,,2013-01-18 18:13:00,
2013-01-18 13:23:00,27.0,-5.0,-100.00,NNW,338,12.0,22.0,24,0.00,,,0.00,491.000000,,2013-01-18 18:23:00,
2013-01-18 13:53:00,28.0,-6.0,-100.00,NW,324,11.0,21.0,22,0.00,,,0.00,473.000000,,2013-01-18 18:53:00,
2013-01-18 14:03:00,28.0,-6.0,-100.00,NW,324,11.0,21.0,22,0.00,,,0.00,473.000000,,2013-01-18 19:03:00,
2013-01-18 14:13:00,28.0,-6.0,-100.00,NW,324,11.0,21.0,22,0.00,,,0.00,473.000000,,2013-01-18 19:13:00,
2013-01-18 14:23:00,28.0,-6.0,-100.00,NW,324,11.0,21.0,22,0.00,,,0.00,473.000000,,2013-01-18 19:23:00,
2013-01-18 14:53:00,29.0,-6.0,-100.00,NW,322,8.0,20.0,21,0.00,,,0.00,400.000000,,2013-01-18 19:53:00,
2013-01-18 15:03:00,29.0,-6.0,-100.00,NW,322,8.0,20.0,21,0.00,,,0.00,400.000000,,2013-01-18 20:03:00,
2013-01-18 15:13:00,29.0,-6.0,-100.00,NW,322,8.0,20.0,21,0.00,,,0.00,400.000000,,2013-01-18 20:13:00,
2013-01-18 15:23:00,29.0,-6.0,-100.00,NW,322,8.0,20.0,21,0.00,,,0.00,400.000000,,2013-01-18 20:23:00,
2013-01-18 15:53:00,28.0,-5.0,-100.00,WNW,289,8.0,16.0,23,0.00,,,0.00,280.000000,,2013-01-18 20:53:00,
2013-01-18 16:03:00,28.0,-5.0,-100.00,WNW,289,8.0,16.0,23,0.00,,,0.00,280.000000,,2013-01-18 21:03:00,
2013-01-18 16:13:00,28.0,-5.0,-100.00,WNW,289,8.0,16.0,23,0.00,,,0.00,280.000000,,2013-01-18 21:13:00,
2013-01-18 16:23:00,28.0,-5.0,-100.00,WNW,289,8.0,16.0,23,0.00,,,0.00,280.000000,,2013-01-18 21:23:00,
2013-01-18 16:53:00,25.0,-5.0,-100.00,NW,316,7.0,14.0,26,0.00,,,0.00,125.000000,,2013-01-18 21:53:00,
2013-01-18 17:03:00,25.0,-5.0,-100.00,NW,316,7.0,14.0,26,0.00,,,0.00,125.000000,,2013-01-18 22:03:00,
2013-01-18 17:12:00,25.0,-5.0,-100.00,NW,316,7.0,14.0,26,0.00,,,0.00,125.000000,,2013-01-18 22:12:00,
2013-01-18 17:23:00,25.0,-5.0,-100.00,NW,316,7.0,14.0,26,0.00,,,0.00,125.000000,,2013-01-18 22:23:00,
2013-01-18 17:53:00,23.0,-4.0,-100.00,NW,315,1.0,11.0,30,0.00,,,0.00,5.000000,,2013-01-18 22:53:00,
2013-01-18 18:03:00,23.0,-4.0,-100.00,NW,315,1.0,11.0,30,0.00,,,0.00,5.000000,,2013-01-18 23:03:00,
2013-01-18 18:12:00,23.0,-4.0,-100.00,NW,315,1.0,11.0,30,0.00,,,0.00,5.000000,,2013-01-18 23:12:00,
2013-01-18 18:22:00,23.0,-4.0,-100.00,NW,315,1.0,11.0,30,0.00,,,0.00,5.000000,,2013-01-18 23:22:00,
2013-01-18 18:53:00,21.0,-1.0,-100.00,South,188,2.0,5.0,37,0.00,,,0.00,0.000000,,2013-01-18 23:53:00,
2013-01-18 19:03:00,21.0,-1.0,-100.00,South,188,2.0,5.0,37,0.00,,,0.00,0.000000,,2013-01-19 00:03:00,
2013-01-18 19:13:00,21.0,-1.0,-100.00,South,188,2.0,5.0,37,0.00,,,0.00,0.000000,,2013-01-19 00:13:00,
2013-01-18 19:23:00,21.0,-1.0,-100.00,South,188,2.0,5.0,37,0.00,,,0.00,0.000000,,2013-01-19 00:23:00,
2013-01-18 19:53:00,17.0,3.0,-100.00,West,264,2.0,4.0,53,0.00,,,0.00,0.000000,,2013-01-19 00:53:00,
2013-01-18 20:03:00,17.0,3.0,-100.00,West,264,2.0,4.0,53,0.00,,,0.00,0.000000,,2013-01-19 01:03:00,
2013-01-18 20:12:00,17.0,3.0,-100.00,West,264,2.0,4.0,53,0.00,,,0.00,0.000000,,2013-01-19 01:12:00,
2013-01-18 20:23:00,17.0,3.0,-100.00,West,264,2.0,4.0,53,0.00,,,0.00,0.000000,,2013-01-19 01:23:00,
2013-01-18 20:53:00,16.0,7.0,-100.00,NNE,14,0.0,3.0,66,0.00,,,0.00,1.000000,,2013-01-19 01:53:00,
2013-01-18 21:03:00,16.0,7.0,-100.00,NNE,14,0.0,3.0,66,0.00,,,0.00,1.000000,,2013-01-19 02:03:00,
2013-01-18 21:12:00,16.0,7.0,-100.00,NNE,14,0.0,3.0,66,0.00,,,0.00,1.000000,,2013-01-19 02:12:00,
2013-01-18 21:23:00,16.0,7.0,-100.00,NNE,14,0.0,3.0,66,0.00,,,0.00,1.000000,,2013-01-19 02:23:00,
2013-01-18 21:53:00,15.0,7.0,-100.00,WNW,302,1.0,5.0,71,0.00,,,0.00,1.000000,,2013-01-19 02:53:00,
2013-01-18 22:03:00,15.0,7.0,-100.00,WNW,302,1.0,5.0,71,0.00,,,0.00,1.000000,,2013-01-19 03:03:00,
2013-01-18 22:12:00,15.0,7.0,-100.00,WNW,302,1.0,5.0,71,0.00,,,0.00,1.000000,,2013-01-19 03:12:00,
2013-01-18 22:23:00,15.0,7.0,-100.00,WNW,302,1.0,5.0,71,0.00,,,0.00,1.000000,,2013-01-19 03:23:00,
2013-01-18 22:53:00,23.0,10.0,-100.00,WSW,241,6.0,15.0,57,0.00,,,0.00,0.000000,,2013-01-19 03:53:00,
2013-01-18 23:02:00,23.0,10.0,-100.00,WSW,241,6.0,15.0,57,0.00,,,0.00,0.000000,,2013-01-19 04:02:00,
2013-01-18 23:12:00,23.0,10.0,-100.00,WSW,241,6.0,15.0,57,0.00,,,0.00,0.000000,,2013-01-19 04:12:00,
2013-01-18 23:22:00,23.0,10.0,-100.00,WSW,241,6.0,15.0,57,0.00,,,0.00,0.000000,,2013-01-19 04:22:00,
2013-01-18 23:53:00,22.0,6.0,-100.00,WNW,301,2.0,14.0,49,0.00,,,0.00,0.000000,,2013-01-19 04:53:00,